Hourly Data Report for October 29, 2014

All times are specified in Local Standard Time (LST). Add 1 hour to adjust for Daylight Saving Time where and when it is observed.

BATHURST A
NEW BRUNSWICK

47°37'47.000" N
65°44'20.000" W
58.80 m
8100505
71574
ZBF

Download Data

Hourly Data (October 2014)
Hourly Data Report for October 29, 2014
Temp Definition
°C
Dew Point Temp Definition
°C
Rel Hum Definition
%
Wind Dir Definition
10's deg

Wind Spd Definition
km/h
Visibility Definition
km
Stn Press Definition
kPa
Hmdx Definition


Wind Chill Definition


Weather Definition


TIME
00:00 Legend Double Dagger 4.6 2.5 86 19 10 24.1 101.07     LegendNANA
01:00 Legend Double Dagger 4.2 2.7 90 17 7 24.1 101.03     Rain Showers
02:00 Legend Double Dagger 4.0 3.0 93 17 4 24.1 100.96     Cloudy
03:00 Legend Double Dagger 4.2 3.2 93 14 4 19.3 100.95     Rain Showers
04:00 Legend Double Dagger 4.3 3.6 95 15 8 24.1 100.82     LegendNANA
05:00 Legend Double Dagger 4.7 3.8 94 17 11 24.1 100.76     Cloudy
06:00 Legend Double Dagger 5.0 4.0 93 18 9 24.1 100.68     LegendNANA
07:00 Legend Double Dagger 5.0 4.3 95 16 8 24.1 100.60     Rain Showers
08:00 Legend Double Dagger 5.1 4.5 96 17 8 6.4 100.56     Rain Showers,Fog
09:00 Legend Double Dagger 5.6 5.0 96 17 8 24.1 100.50     LegendNANA
10:00 Legend Double Dagger 5.9 5.3 96 23 5 8.1 100.45     Rain Showers,Fog
11:00 Legend Double Dagger 6.0 5.6 97 16 9 8.1 100.33     Rain Showers,Fog
12:00 Legend Double Dagger 6.5 6.1 97 18 12 6.4 100.21     Rain,Fog
13:00 Legend Double Dagger 6.8 6.2 96 17 9 12.9 100.13     Rain
14:00 Legend Double Dagger 7.4 7.0 97 16 9 12.9 99.99     Rain
15:00 Legend Double Dagger 7.7 7.3 97 17 5 8.1 99.99     Rain Showers,Fog
16:00 Legend Double Dagger 7.7 7.3 97 18 5 12.9 99.96     LegendNANA
17:00 Legend Double Dagger 7.7 7.4 98 15 5 12.9 99.90     Rain Showers
18:00 Legend Double Dagger 7.7 7.4 98 17 4 19.3 99.83     Rain Showers
19:00 Legend Double Dagger 7.8 7.5 98 36 3 11.3 99.80     Rain Showers
20:00 Legend Double Dagger 7.5 7.4 99 4 3 11.3 99.78     Cloudy
21:00 Legend Double Dagger 7.3 7.2 99 36 2 6.4 99.74     Rain Showers,Fog
22:00 Legend Double Dagger 7.4 7.3 99 23 4 6.4 99.68     Rain Showers,Fog
23:00 Legend Double Dagger 7.3 7.2 99 36 1 4.8 99.64     Rain Showers,Fog

Notes on Data Quality.

Legend

  • E = Estimated
  • M = Missing
  • NA = Not Available
  • ‡ = Partner data that is not subject to review by the National Climate Archives
Date modified: